Weather in Maloe Vidnoe

Russia / Moscow Oblast     55°34′20″N   37°44′56″E
temp.,
°C
wind,
m/s
gust,
m/s
humid.,
%
clouds,
%
prec.,
mm/h
press.,
hPa
HPBL,
m
2 july, sat
sat200:00+11nne33635 0.0 102340
03:00+10nne22680 0.0 102321
06:00+13nnw35677 0.0 1023152
09:00+18n454647 0.0 1023780
12:00+22n46365 0.0 10221708
15:00+24n45355 0.0 10201969
18:00+24n46435 0.0 1019588
21:00+18nnw22527 0.0 101913
3 july, sun
sun300:00+17wnw4563100 0.0 101871
03:00+16w3363100 0.0 101742
06:00+17nw411725 0.3 1016301
09:00+23nnw57570 0.3 1016712
12:00+27n58420 0.0 10151935
15:00+28n67375 0.0 10152390
18:00+26nne464696 0.0 1015430
21:00+19ene33695 0.0 101635
4 july, mon
mon400:00+16ne11745 0.0 101711
03:00+15nne117973 0.0 101711
06:00+18ne12725 0.0 101767
09:00+23ne22550 0.0 1017550
12:00+26ne13430 0.0 10171723
15:00+28s133741 0.0 10152310
18:00+23wsw475750 0.0 1015164
21:00+21wsw33670 0.0 101532
5 july, tue
tue500:00+18wsw33800 0.0 101638
03:00+17wsw33891 0.0 101632
06:00+19sw248315 0.0 1016107
09:00+24sw35595 0.0 1016625
12:00+27sw344872 0.0 10151434
15:00+29sw354199 0.0 10142422
18:00+27sw4654100 0.0 1014549
21:00+21ssw238459 1.7 101451
6 july, wed
wed600:00+19sw368799 0.1 101484
03:00+19sw2387100 0.1 101441
06:00+18ssw3790100 0.5 1015192
09:00+22sw4677100 0.5 1014466
12:00+26wsw4563100 1.9 10131064
15:00+28sw465152 2.4 10121631
18:00+26nnw245829 0.0 1011170
21:00+20wnw4788100 1.8 1012152